Time,TemperatureF,DewpointF,PressureIn,WindDirection,WindDirectionDegrees,WindSpeedMPH,WindSpeedGustMPH,Humidity,HourlyPrecipIn,Conditions,Clouds,dailyrainin,SoftwareType,DateUTC
2013-01-08 00:02:00,27.0,24.0,30.30,SSE,154,0.0,0.0,87,0.00,,,0.00,,2013-01-08 06:02:00,
2013-01-08 00:12:00,27.0,24.0,30.30,SSE,154,0.0,0.0,87,0.00,,,0.00,,2013-01-08 06:12:00,
2013-01-08 00:22:00,27.0,24.0,30.29,SSE,154,0.0,0.0,88,0.00,,,0.00,,2013-01-08 06:22:00,
2013-01-08 00:33:00,27.0,24.0,30.29,SSE,154,0.0,0.0,89,0.00,,,0.00,,2013-01-08 06:33:00,
2013-01-08 00:42:00,27.0,24.0,30.29,SSE,154,0.0,0.0,89,0.00,,,0.00,,2013-01-08 06:42:00,
2013-01-08 00:52:00,28.0,25.0,30.29,SSE,154,0.0,0.0,89,0.00,,,0.00,,2013-01-08 06:52:00,
2013-01-08 01:02:00,28.0,25.0,30.29,SSE,154,0.0,0.0,89,0.00,,,0.00,,2013-01-08 07:02:00,
2013-01-08 01:12:00,28.0,25.0,30.29,SSE,154,0.0,0.0,89,0.00,,,0.00,,2013-01-08 07:12:00,
2013-01-08 01:22:00,31.0,27.0,30.27,South,181,0.0,0.0,84,0.00,,,0.00,,2013-01-08 07:22:00,
2013-01-08 01:32:00,31.0,27.0,30.27,South,180,0.0,0.0,84,0.00,,,0.00,,2013-01-08 07:32:00,
2013-01-08 01:42:00,31.0,27.0,30.27,South,180,0.0,0.0,84,0.00,,,0.00,,2013-01-08 07:42:00,
2013-01-08 01:52:00,31.0,26.0,30.27,South,180,0.0,0.0,83,0.00,,,0.00,,2013-01-08 07:52:00,
2013-01-08 02:02:00,30.0,26.0,30.27,South,180,0.0,0.0,85,0.00,,,0.00,,2013-01-08 08:02:00,
2013-01-08 02:12:00,30.0,26.0,30.27,South,180,0.0,0.0,85,0.00,,,0.00,,2013-01-08 08:12:00,
2013-01-08 02:22:00,31.0,27.0,30.29,South,180,0.0,0.0,84,0.00,,,0.00,,2013-01-08 08:22:00,
2013-01-08 02:32:00,30.0,25.0,30.29,South,180,0.0,0.0,83,0.00,,,0.00,,2013-01-08 08:32:00,
2013-01-08 02:42:00,30.0,25.0,30.29,South,180,0.0,0.0,83,0.00,,,0.00,,2013-01-08 08:42:00,
2013-01-08 02:52:00,29.0,25.0,30.29,South,180,0.0,0.0,85,0.00,,,0.00,,2013-01-08 08:52:00,
2013-01-08 03:02:00,29.0,25.0,30.29,South,180,0.0,0.0,86,0.00,,,0.00,,2013-01-08 09:02:00,
2013-01-08 03:12:00,29.0,25.0,30.29,South,180,0.0,0.0,86,0.00,,,0.00,,2013-01-08 09:12:00,
2013-01-08 03:22:00,29.0,25.0,30.29,South,180,0.0,0.0,85,0.00,,,0.00,,2013-01-08 09:22:00,
2013-01-08 03:32:00,28.0,24.0,30.29,South,180,0.0,0.0,86,0.00,,,0.00,,2013-01-08 09:32:00,
2013-01-08 03:42:00,28.0,24.0,30.29,South,180,0.0,0.0,86,0.00,,,0.00,,2013-01-08 09:42:00,
2013-01-08 03:52:00,28.0,24.0,30.29,South,180,0.0,0.0,86,0.00,,,0.00,,2013-01-08 09:52:00,
2013-01-08 04:02:00,28.0,25.0,30.29,South,180,0.0,0.0,87,0.00,,,0.00,,2013-01-08 10:02:00,
2013-01-08 04:12:00,28.0,25.0,30.29,South,180,0.0,0.0,87,0.00,,,0.00,,2013-01-08 10:12:00,
2013-01-08 04:22:00,29.0,26.0,30.28,South,180,0.0,0.0,87,0.00,,,0.00,,2013-01-08 10:22:00,
2013-01-08 04:32:00,28.0,24.0,30.28,South,180,0.0,0.0,85,0.00,,,0.00,,2013-01-08 10:32:00,
2013-01-08 04:42:00,28.0,24.0,30.28,South,180,0.0,0.0,85,0.00,,,0.00,,2013-01-08 10:42:00,
2013-01-08 04:52:00,28.0,24.0,30.28,South,180,0.0,0.0,86,0.00,,,0.00,,2013-01-08 10:52:00,
2013-01-08 05:02:00,29.0,25.0,30.28,South,180,0.0,0.0,85,0.00,,,0.00,,2013-01-08 11:02:00,
2013-01-08 05:12:00,29.0,25.0,30.28,South,180,0.0,0.0,85,0.00,,,0.00,,2013-01-08 11:12:00,
2013-01-08 05:22:00,29.0,25.0,30.29,South,180,0.0,0.0,84,0.00,,,0.00,,2013-01-08 11:22:00,
2013-01-08 05:33:00,28.0,24.0,30.29,South,180,0.0,0.0,85,0.00,,,0.00,,2013-01-08 11:33:00,
2013-01-08 05:42:00,28.0,24.0,30.29,South,180,0.0,0.0,85,0.00,,,0.00,,2013-01-08 11:42:00,
2013-01-08 05:53:00,28.0,24.0,30.29,South,180,0.0,0.0,86,0.00,,,0.00,,2013-01-08 11:53:00,
2013-01-08 06:02:00,27.0,23.0,30.29,South,180,0.0,0.0,85,0.00,,,0.00,,2013-01-08 12:02:00,
2013-01-08 06:12:00,27.0,23.0,30.29,South,180,0.0,0.0,85,0.00,,,0.00,,2013-01-08 12:12:00,
2013-01-08 06:22:00,26.0,22.0,30.29,South,180,0.0,0.0,86,0.00,,,0.00,,2013-01-08 12:22:00,
2013-01-08 06:32:00,25.0,22.0,30.30,South,180,0.0,0.0,88,0.00,,,0.00,,2013-01-08 12:32:00,
2013-01-08 06:42:00,25.0,22.0,30.30,South,180,0.0,0.0,88,0.00,,,0.00,,2013-01-08 12:42:00,
2013-01-08 06:53:00,25.0,22.0,30.31,South,180,0.0,0.0,89,0.00,,,0.00,,2013-01-08 12:53:00,
2013-01-08 07:03:00,25.0,23.0,30.31,South,180,0.0,0.0,92,0.00,,,0.00,,2013-01-08 13:03:00,
2013-01-08 07:12:00,25.0,23.0,30.31,South,180,0.0,0.0,92,0.00,,,0.00,,2013-01-08 13:12:00,
2013-01-08 07:22:00,27.0,25.0,30.32,South,180,0.0,0.0,93,0.00,,,0.00,,2013-01-08 13:22:00,
2013-01-08 07:32:00,26.0,23.0,30.32,South,180,0.0,0.0,90,0.00,,,0.00,,2013-01-08 13:32:00,
2013-01-08 07:42:00,26.0,23.0,30.32,South,180,0.0,0.0,90,0.00,,,0.00,,2013-01-08 13:42:00,
2013-01-08 07:53:00,27.0,25.0,30.32,South,180,0.0,0.0,91,0.00,,,0.00,,2013-01-08 13:53:00,
2013-01-08 08:02:00,28.0,26.0,30.32,South,180,0.0,0.0,92,0.00,,,0.00,,2013-01-08 14:02:00,
2013-01-08 08:12:00,28.0,26.0,30.32,South,180,0.0,0.0,92,0.00,,,0.00,,2013-01-08 14:12:00,
2013-01-08 08:23:00,29.0,26.0,30.32,South,180,0.0,0.0,90,0.00,,,0.00,,2013-01-08 14:23:00,
2013-01-08 08:33:00,31.0,27.0,30.32,South,178,0.0,0.0,86,0.00,,,0.00,,2013-01-08 14:33:00,
2013-01-08 08:43:00,31.0,27.0,30.32,South,178,0.0,0.0,86,0.00,,,0.00,,2013-01-08 14:43:00,
2013-01-08 08:53:00,33.0,28.0,30.32,SSE,150,0.0,0.0,82,0.00,,,0.00,,2013-01-08 14:53:00,
2013-01-08 09:02:00,34.0,29.0,30.32,SSE,161,0.0,0.0,81,0.01,,,0.01,,2013-01-08 15:02:00,
2013-01-08 09:12:00,34.0,29.0,30.32,SSE,161,0.0,0.0,81,0.01,,,0.01,,2013-01-08 15:12:00,
2013-01-08 09:22:00,34.0,29.0,30.33,South,188,0.0,0.0,81,0.01,,,0.01,,2013-01-08 15:22:00,
2013-01-08 09:33:00,34.0,29.0,30.33,South,188,0.0,0.0,81,0.01,,,0.01,,2013-01-08 15:33:00,
2013-01-08 09:43:00,34.0,29.0,30.33,South,188,0.0,0.0,81,0.01,,,0.01,,2013-01-08 15:43:00,
2013-01-08 09:53:00,36.0,30.0,30.33,South,181,0.0,0.0,79,0.01,,,0.01,,2013-01-08 15:53:00,
2013-01-08 10:03:00,36.0,30.0,30.33,SSE,167,0.0,0.0,79,0.00,,,0.01,,2013-01-08 16:03:00,
2013-01-08 10:12:00,36.0,30.0,30.33,SSE,167,0.0,0.0,79,0.00,,,0.01,,2013-01-08 16:12:00,
2013-01-08 10:22:00,36.0,30.0,30.33,South,177,0.0,0.0,78,0.00,,,0.01,,2013-01-08 16:22:00,
2013-01-08 10:33:00,37.0,31.0,30.33,South,190,0.0,0.0,78,0.00,,,0.01,,2013-01-08 16:33:00,
2013-01-08 10:42:00,37.0,31.0,30.33,South,190,0.0,0.0,78,0.00,,,0.01,,2013-01-08 16:42:00,
2013-01-08 10:53:00,37.0,31.0,30.32,South,171,0.0,9.0,78,0.00,,,0.01,,2013-01-08 16:53:00,
2013-01-08 11:03:00,37.0,30.0,30.32,SSW,194,0.0,0.0,77,0.00,,,0.01,,2013-01-08 17:03:00,
2013-01-08 11:13:00,37.0,30.0,30.32,SSW,194,0.0,0.0,77,0.00,,,0.01,,2013-01-08 17:13:00,
2013-01-08 11:23:00,37.0,31.0,30.32,SSW,198,0.0,4.0,78,0.00,,,0.01,,2013-01-08 17:23:00,
2013-01-08 11:33:00,38.0,32.0,30.29,South,178,0.0,0.0,78,0.00,,,0.01,,2013-01-08 17:33:00,
2013-01-08 11:43:00,38.0,32.0,30.29,South,178,0.0,0.0,78,0.00,,,0.01,,2013-01-08 17:43:00,
2013-01-08 11:54:00,38.0,31.0,30.29,SSW,194,0.0,0.0,76,0.00,,,0.01,,2013-01-08 17:54:00,
2013-01-08 12:03:00,38.0,32.0,30.28,SSW,201,0.0,0.0,78,0.00,,,0.01,,2013-01-08 18:03:00,
2013-01-08 12:13:00,38.0,32.0,30.28,SSW,201,0.0,0.0,78,0.00,,,0.01,,2013-01-08 18:13:00,
2013-01-08 12:23:00,39.0,32.0,30.28,SSW,200,0.0,0.0,77,0.00,,,0.01,,2013-01-08 18:23:00,
2013-01-08 12:33:00,39.0,32.0,30.27,SSW,201,0.0,0.0,76,0.00,,,0.01,,2013-01-08 18:33:00,
2013-01-08 12:43:00,39.0,32.0,30.27,SSW,201,0.0,0.0,76,0.00,,,0.01,,2013-01-08 18:43:00,
2013-01-08 12:53:00,39.0,32.0,30.27,SSW,201,0.0,0.0,76,0.00,,,0.01,,2013-01-08 18:53:00,
2013-01-08 13:03:00,42.0,33.0,30.26,SSW,194,0.0,4.0,70,0.00,,,0.01,,2013-01-08 19:03:00,
2013-01-08 13:12:00,42.0,33.0,30.26,SSW,194,0.0,4.0,70,0.00,,,0.01,,2013-01-08 19:12:00,
2013-01-08 13:23:00,42.0,34.0,30.26,SSW,194,0.0,0.0,72,0.00,,,0.01,,2013-01-08 19:23:00,
2013-01-08 13:32:00,43.0,34.0,30.26,SSW,205,0.0,0.0,71,0.00,,,0.01,,2013-01-08 19:32:00,
2013-01-08 13:42:00,43.0,34.0,30.26,SSW,205,0.0,0.0,71,0.00,,,0.01,,2013-01-08 19:42:00,
2013-01-08 13:53:00,43.0,33.0,30.26,SSW,200,0.0,0.0,68,0.00,,,0.01,,2013-01-08 19:53:00,
2013-01-08 14:03:00,43.0,34.0,30.27,SSW,198,0.0,0.0,70,0.00,,,0.01,,2013-01-08 20:03:00,
2013-01-08 14:12:00,43.0,34.0,30.27,SSW,198,0.0,0.0,70,0.00,,,0.01,,2013-01-08 20:12:00,
2013-01-08 14:23:00,44.0,34.0,30.25,South,186,0.0,0.0,68,0.00,,,0.01,,2013-01-08 20:23:00,
2013-01-08 14:33:00,44.0,33.0,30.25,SSE,163,0.0,0.0,66,0.00,,,0.01,,2013-01-08 20:33:00,
2013-01-08 14:43:00,44.0,33.0,30.25,SSE,163,0.0,0.0,66,0.00,,,0.01,,2013-01-08 20:43:00,
2013-01-08 14:53:00,45.0,34.0,30.19,ESE,121,0.0,0.0,65,0.00,,,0.01,,2013-01-08 20:53:00,
2013-01-08 15:03:00,45.0,34.0,30.23,SSE,153,0.0,0.0,65,0.00,,,0.01,,2013-01-08 21:03:00,
2013-01-08 15:12:00,45.0,34.0,30.23,SSE,153,0.0,0.0,65,0.00,,,0.01,,2013-01-08 21:12:00,
2013-01-08 15:23:00,45.0,34.0,30.19,SSE,149,0.0,0.0,65,0.00,,,0.01,,2013-01-08 21:23:00,
2013-01-08 15:33:00,46.0,35.0,30.21,SE,136,0.0,0.0,64,0.00,,,0.01,,2013-01-08 21:33:00,
2013-01-08 15:43:00,46.0,35.0,30.21,SE,136,0.0,0.0,64,0.00,,,0.01,,2013-01-08 21:43:00,
2013-01-08 15:53:00,46.0,35.0,30.22,SE,142,0.0,0.0,64,0.00,,,0.01,,2013-01-08 21:53:00,
2013-01-08 16:03:00,46.0,35.0,30.22,SE,142,0.0,0.0,64,0.00,,,0.01,,2013-01-08 22:03:00,
2013-01-08 16:12:00,46.0,35.0,30.22,SE,142,0.0,0.0,64,0.00,,,0.01,,2013-01-08 22:12:00,
2013-01-08 16:23:00,45.0,34.0,30.24,SE,131,0.0,0.0,66,0.00,,,0.01,,2013-01-08 22:23:00,
2013-01-08 16:32:00,44.0,34.0,30.24,SE,131,0.0,0.0,68,0.00,,,0.01,,2013-01-08 22:32:00,
2013-01-08 16:43:00,44.0,34.0,30.24,SE,131,0.0,0.0,68,0.00,,,0.01,,2013-01-08 22:43:00,
2013-01-08 16:53:00,44.0,34.0,30.24,SE,132,0.0,0.0,69,0.00,,,0.01,,2013-01-08 22:53:00,
2013-01-08 17:02:00,43.0,34.0,30.24,SE,132,0.0,0.0,70,0.00,,,0.01,,2013-01-08 23:02:00,
2013-01-08 17:12:00,43.0,34.0,30.24,SE,132,0.0,0.0,70,0.00,,,0.01,,2013-01-08 23:12:00,
2013-01-08 17:22:00,43.0,34.0,30.24,SE,132,0.0,0.0,71,0.00,,,0.01,,2013-01-08 23:22:00,
2013-01-08 17:32:00,42.0,34.0,30.24,SE,132,0.0,0.0,73,0.00,,,0.01,,2013-01-08 23:32:00,
2013-01-08 17:43:00,42.0,34.0,30.24,SE,132,0.0,0.0,73,0.00,,,0.01,,2013-01-08 23:43:00,
2013-01-08 17:53:00,42.0,34.0,30.25,SE,132,0.0,0.0,74,0.00,,,0.01,,2013-01-08 23:53:00,
2013-01-08 18:02:00,42.0,34.0,30.25,SE,132,0.0,0.0,73,0.00,,,0.01,,2013-01-09 00:02:00,
2013-01-08 18:12:00,42.0,34.0,30.25,SE,132,0.0,0.0,73,0.00,,,0.01,,2013-01-09 00:12:00,
2013-01-08 18:22:00,42.0,34.0,30.26,SE,132,0.0,0.0,74,0.00,,,0.01,,2013-01-09 00:22:00,
2013-01-08 18:33:00,42.0,34.0,30.26,SE,132,0.0,0.0,72,0.00,,,0.01,,2013-01-09 00:33:00,
2013-01-08 18:42:00,42.0,34.0,30.26,SE,132,0.0,0.0,72,0.00,,,0.01,,2013-01-09 00:42:00,
2013-01-08 18:53:00,42.0,34.0,30.26,SE,132,0.0,0.0,72,0.00,,,0.01,,2013-01-09 00:53:00,
2013-01-08 19:02:00,44.0,34.0,30.24,SE,146,0.0,0.0,69,0.00,,,0.01,,2013-01-09 01:02:00,
2013-01-08 19:12:00,44.0,34.0,30.24,SE,146,0.0,0.0,69,0.00,,,0.01,,2013-01-09 01:12:00,
2013-01-08 19:22:00,44.0,34.0,30.24,SSE,148,0.0,0.0,68,0.00,,,0.01,,2013-01-09 01:22:00,
2013-01-08 19:32:00,43.0,33.0,30.23,SSE,148,0.0,0.0,68,0.00,,,0.01,,2013-01-09 01:32:00,
2013-01-08 19:42:00,43.0,33.0,30.23,SSE,148,0.0,0.0,68,0.00,,,0.01,,2013-01-09 01:42:00,
2013-01-08 19:52:00,42.0,33.0,30.23,SSE,148,0.0,0.0,71,0.00,,,0.01,,2013-01-09 01:52:00,
2013-01-08 20:02:00,40.0,33.0,30.24,SSE,148,0.0,0.0,76,0.00,,,0.01,,2013-01-09 02:02:00,
2013-01-08 20:12:00,40.0,33.0,30.24,SSE,148,0.0,0.0,76,0.00,,,0.01,,2013-01-09 02:12:00,
2013-01-08 20:22:00,40.0,33.0,30.23,SSE,148,0.0,0.0,75,0.00,,,0.01,,2013-01-09 02:22:00,
2013-01-08 20:32:00,40.0,33.0,30.23,SSE,148,0.0,0.0,75,0.00,,,0.01,,2013-01-09 02:32:00,
2013-01-08 20:42:00,40.0,33.0,30.23,SSE,148,0.0,0.0,75,0.00,,,0.01,,2013-01-09 02:42:00,
2013-01-08 20:53:00,42.0,34.0,30.23,SSE,150,0.0,0.0,72,0.00,,,0.01,,2013-01-09 02:53:00,
2013-01-08 21:03:00,42.0,34.0,30.24,SSE,150,0.0,0.0,72,0.00,,,0.01,,2013-01-09 03:03:00,
2013-01-08 21:12:00,42.0,34.0,30.24,SSE,150,0.0,0.0,72,0.00,,,0.01,,2013-01-09 03:12:00,
2013-01-08 21:22:00,43.0,34.0,30.24,SE,142,0.0,0.0,71,0.00,,,0.01,,2013-01-09 03:22:00,
2013-01-08 21:33:00,42.0,34.0,30.24,SSW,196,0.0,0.0,73,0.00,,,0.01,,2013-01-09 03:33:00,
2013-01-08 21:43:00,42.0,34.0,30.24,SSW,196,0.0,0.0,73,0.00,,,0.01,,2013-01-09 03:43:00,
2013-01-08 21:53:00,41.0,34.0,30.25,SSW,196,0.0,0.0,75,0.00,,,0.01,,2013-01-09 03:53:00,
2013-01-08 22:02:00,40.0,33.0,30.25,SSW,196,0.0,0.0,76,0.00,,,0.01,,2013-01-09 04:02:00,
2013-01-08 22:12:00,40.0,33.0,30.25,SSW,196,0.0,0.0,76,0.00,,,0.01,,2013-01-09 04:12:00,
2013-01-08 22:22:00,40.0,34.0,30.25,SSW,196,0.0,0.0,78,0.00,,,0.01,,2013-01-09 04:22:00,
2013-01-08 22:32:00,41.0,34.0,30.24,SSW,196,0.0,0.0,77,0.00,,,0.01,,2013-01-09 04:32:00,
2013-01-08 22:42:00,41.0,34.0,30.24,SSW,196,0.0,0.0,77,0.00,,,0.01,,2013-01-09 04:42:00,
2013-01-08 22:52:00,41.0,34.0,30.24,SSW,196,0.0,0.0,76,0.00,,,0.01,,2013-01-09 04:52:00,
2013-01-08 23:03:00,41.0,34.0,30.24,SSW,196,0.0,0.0,76,0.00,,,0.01,,2013-01-09 05:03:00,
2013-01-08 23:12:00,41.0,34.0,30.24,SSW,196,0.0,0.0,76,0.00,,,0.01,,2013-01-09 05:12:00,
2013-01-08 23:22:00,41.0,34.0,30.24,SSW,196,0.0,0.0,75,0.00,,,0.01,,2013-01-09 05:22:00,
2013-01-08 23:33:00,42.0,34.0,30.24,SSW,196,0.0,0.0,74,0.00,,,0.01,,2013-01-09 05:33:00,
2013-01-08 23:42:00,42.0,34.0,30.24,SSW,196,0.0,0.0,74,0.00,,,0.01,,2013-01-09 05:42:00,
2013-01-08 23:53:00,42.0,34.0,30.24,SSW,196,0.0,0.0,74,0.00,,,0.01,,2013-01-09 05:53:00,